Voltar ao catálogo

STARLINK-3769

AtivoComunicaçõesVLEO
NORAD 52300·PAYLOAD·🇺🇸 United States

Lançado Apr 21, 2022 de Cape Canaveral Space Force Station

Loading…

Próximas Passagens (próximas 24 horas)

TLE

AtualizadoSource: CelesTrak SupGP

Época: Sep 14, 2026, 21:45 UTC

1 52300C 22041AR  26257.90673611 -.00009681  00000+0 -28605-3 0  2570
2 52300  53.1578 317.5236 0001193  86.5888  85.8646 15.34391414    18

Acompanhe STARLINK-3769 em tempo real com AllMySat

Download on the App Store